Temp
7 7 7 7 6 6 5 5 5 4 4 4 4 4 4 4 4 3 3 3 3 3 3 3 2 2 2 2 3 3 3 3 2 2 1 1 0 0 -0 -0 -0 -0 -0 -0 -0 -0 -0 -0 -0 -0 -0 -0 -0 -0 -0 -0 -0 -0 -0 -0 -0 -0 -0 -0 -0 -0 -0 0 0 0 1 1 1 1 1 1 1 1 1 1 1 1 1 1 1 2
6 6 6 6 5 5 5 4 4 4 3 3 3 3 3 3 3 3 3 3 3 3 2 2 2 2 2 2 2 3 3 3 2 1 1 0 0 0 0 -0 -0 -0 -0 -0 -0 -1 -1 -1 -1 -1 -1 -1 -1 -1 -1 -1 -1 -1 -1 -1 -1 -1 -1 -1 -1 -1 -1 -0 -0 0 0 0 1 1 1 1 1 1 0 0 1 1 1 1 1 1
6 5 5 5 5 4 4 3 4 4 3 3 3 3 3 3 3 2 2 2 2 2 2 2 2 2 2 2 2 3 3 2 2 1 1 1 0 0 0 0 0 0 -0 -0 -1 -1 -1 -1 -1 -1 -1 -1 -1 -1 -1 -1 -1 -1 -1 -1 -1 -1 -1 -1 -1 -1 -1 -1 -0 -0 0 0 0 0 0 0 0 0 0 0 0 1 1 1 1 1
6 5 4 4 4 4 3 3 3 3 3 3 3 3 3 2 2 2 2 2 2 2 2 2 2 2 2 2 2 2 2 2 2 1 1 1 1 1 1 1 0 0 -0 -1 -1 -1 -1 -1 -1 -1 -1 -1 -1 -1 -1 -1 -1 -1 -1 -1 -1 -1 -2 -2 -1 -1 -1 -1 -1 -0 -0 -0 -0 -0 -0 -0 -0 -0 -0 0 0 0 1 1 1 1
6 5 4 4 3 3 3 3 3 3 3 3 2 2 2 2 2 2 2 2 2 2 2 2 2 2 2 2 2 2 2 2 1 1 1 1 1 1 1 1 0 -0 -1 -1 -1 -1 -2 -2 -2 -2 -2 -2 -2 -2 -2 -1 -2 -2 -2 -2 -2 -2 -2 -2 -2 -1 -1 -1 -1 -1 -1 -1 -1 -1 -0 -0 -0 -0 -0 -0 -0 -0 0 0 0 1
5 4 4 3 3 2 2 2 2 2 2 2 2 2 2 2 2 2 2 2 2 2 2 2 2 2 2 2 2 2 2 2 1 1 1 1 1 1 1 0 -0 -0 -1 -1 -1 -2 -2 -2 -2 -2 -2 -2 -2 -2 -2 -2 -2 -2 -2 -2 -2 -2 -2 -2 -2 -2 -2 -1 -1 -1 -1 -1 -1 -1 -1 -1 -1 -1 -1 -1 -0 -0 -0 0 0 0
4 4 4 3 3 2 2 2 1 2 1 1 2 1 1 1 1 2 2 2 2 2 2 2 2 2 2 2 1 1 1 1 1 1 1 1 1 1 0 0 -0 -1 -1 -1 -1 -2 -2 -2 -2 -2 -2 -2 -2 -2 -2 -2 -2 -2 -2 -2 -2 -2 -2 -2 -2 -2 -2 -1 -1 -1 -1 -1 -1 -1 -1 -1 -1 -1 -1 -1 -1 -1 -0 -0 -0 -0
3 3 3 2 2 2 1 1 1 1 1 2 2 2 2 2 1 1 1 1 2 2 2 2 2 2 1 1 1 1 1 1 1 0 0 0 0 0 0 -0 -0 -1 -1 -1 -1 -1 -1 -1 -2 -2 -2 -2 -2 -2 -2 -3 -3 -3 -3 -3 -3 -3 -2 -2 -2 -2 -2 -1 -1 -1 -1 -1 -1 -1 -1 -1 -1 -1 -1 -1 -1 -1 -1 -1 -0 -0
3 2 2 2 1 1 1 1 1 1 1 1 2 2 2 2 2 2 2 1 1 1 1 1 1 1 1 1 1 1 0 0 0 0 0 0 0 0 0 -0 -0 -1 -1 -1 -1 -1 -1 -1 -1 -1 -2 -2 -2 -3 -3 -3 -3 -3 -3 -3 -3 -3 -2 -2 -2 -2 -2 -1 -1 -1 -1 -1 -1 -1 -1 -1 -1 -1 -1 -1 -1 -1 -1 -1 -1 -1
3 2 2 1 1 2 2 2 1 1 1 1 1 1 1 2 2 2 2 2 2 1 1 1 1 1 1 1 1 1 0 0 0 0 0 0 0 0 -0 -0 -0 -1 -1 -1 -1 -1 -1 -1 -1 -1 -2 -2 -3 -3 -3 -3 -3 -3 -3 -3 -3 -3 -2 -2 -2 -2 -2 -2 -2 -2 -1 -1 -1 -1 -1 -1 -1 -1 -1 -1 -1 -1 -1 -1 -1 -1
2 2 1 1 1 1 2 2 1 1 1 1 0 0 0 1 1 1 2 2 2 1 1 0 0 0 1 0 0 0 0 -0 -0 -0 -0 -0 -1 -1 -1 -1 -1 -1 -1 -1 -1 -1 -1 -1 -1 -2 -2 -3 -3 -3 -3 -3 -3 -3 -3 -3 -3 -3 -2 -2 -2 -2 -2 -2 -2 -2 -2 -2 -2 -2 -2 -2 -2 -2 -2 -2 -2 -2 -1 -1 -1 -1
2 1 1 1 1 1 1 1 1 0 0 0 1 1 1 0 0 0 1 1 1 1 1 0 -0 0 0 0 0 0 -0 -0 -1 -1 -1 -1 -1 -1 -1 -1 -1 -2 -2 -1 -1 -1 -1 -2 -2 -2 -2 -3 -3 -3 -4 -4 -4 -3 -3 -3 -3 -3 -2 -2 -2 -2 -2 -2 -2 -2 -2 -2 -2 -2 -2 -2 -2 -2 -2 -2 -2 -2 -2 -2 -2 -1
1 1 1 1 1 1 1 1 1 0 1 1 2 3 2 1 -0 -0 -0 0 0 0 0 -0 -0 -0 -0 -0 -0 -0 -0 -1 -1 -1 -1 -1 -1 -1 -1 -1 -1 -2 -2 -2 -2 -2 -2 -2 -2 -2 -3 -3 -3 -4 -4 -4 -4 -3 -3 -3 -3 -3 -2 -2 -2 -2 -2 -2 -2 -2 -2 -2 -2 -2 -2 -2 -2 -2 -2 -2 -2 -2 -2 -2 -2 -2
1 1 1 2 2 2 2 2 2 2 2 2 2 2 1 0 -0 -0 -0 0 0 0 -0 -0 -0 0 0 -0 -0 -1 -1 -1 -1 -1 -1 -1 -1 -1 -1 -1 -1 -2 -2 -2 -2 -2 -2 -2 -2 -2 -3 -3 -3 -3 -4 -4 -4 -3 -3 -3 -3 -3 -2 -2 -2 -2 -2 -2 -2 -2 -2 -2 -2 -2 -2 -2 -2 -2 -2 -2 -2 -2 -2 -2 -2 -2
1 2 3 3 3 3 2 2 3 3 2 2 1 0 -0 -0 -0 -0 0 0 0 0 -0 -0 0 1 1 0 -0 -1 -1 -1 -1 -1 -1 -1 -1 -1 -1 -1 -1 -2 -2 -2 -2 -2 -2 -2 -2 -2 -2 -3 -3 -3 -4 -4 -4 -3 -3 -3 -3 -3 -3 -3 -3 -3 -3 -3 -3 -3 -3 -2 -2 -2 -2 -2 -2 -2 -2 -2 -2 -2 -2 -2 -2 -2
2 3 4 5 4 3 2 2 2 2 1 1 0 -0 -0 -0 -0 -0 -0 -0 -0 -0 -0 0 1 2 2 1 -0 -1 -1 -2 -2 -1 -2 -1 -1 -1 -1 -1 -2 -2 -2 -2 -2 -2 -2 -2 -2 -2 -2 -3 -3 -4 -4 -4 -4 -3 -3 -3 -3 -3 -3 -3 -3 -3 -3 -3 -3 -3 -3 -3 -3 -3 -3 -3 -3 -3 -3 -3 -3 -2 -2 -2 -2 -2
3 4 4 5 4 3 2 1 1 1 1 0 -0 -0 -1 -1 -0 -1 -1 -1 -1 -1 -0 0 1 1 2 2 0 -1 -1 -2 -2 -2 -2 -2 -1 -1 -1 -1 -2 -2 -2 -2 -2 -2 -2 -2 -2 -2 -3 -3 -3 -4 -4 -4 -4 -4 -3 -3 -3 -3 -3 -3 -3 -3 -3 -3 -3 -3 -3 -3 -3 -3 -3 -3 -3 -3 -3 -3 -3 -3 -3 -2 -2 -2
3 3 4 4 3 2 1 1 1 0 0 -0 -1 -1 -1 -1 -1 -1 -1 -1 -1 -1 -1 -0 -0 0 1 1 1 0 -1 -2 -2 -2 -2 -2 -1 -1 -1 -2 -2 -2 -2 -2 -2 -2 -2 -2 -2 -3 -3 -3 -3 -4 -4 -4 -4 -4 -4 -4 -4 -4 -4 -4 -4 -4 -4 -4 -4 -3 -3 -3 -3 -3 -3 -3 -3 -3 -3 -3 -3 -3 -3 -3 -2 -2
2 3 3 3 3 2 1 1 0 0 -0 -0 -1 -1 -1 -1 -1 -2 -2 -2 -2 -1 -1 -1 -1 -0 -0 0 0 -0 -1 -2 -3 -3 -3 -2 -1 -1 -1 -1 -2 -2 -2 -2 -2 -2 -2 -2 -2 -3 -3 -3 -3 -4 -4 -4 -4 -4 -4 -4 -4 -4 -4 -4 -4 -4 -4 -4 -4 -4 -4 -4 -4 -3 -3 -3 -3 -3 -3 -3 -3 -3 -3 -3 -2 -2
2 2 2 2 2 1 1 0 0 -0 -0 -1 -1 -1 -1 -1 -1 -2 -2 -2 -2 -2 -2 -1 -1 -1 -1 -0 -1 -1 -2 -3 -3 -3 -3 -2 -2 -1 -1 -1 -2 -2 -2 -2 -2 -2 -2 -2 -2 -3 -3 -3 -4 -4 -4 -4 -4 -4 -4 -4 -4 -4 -4 -4 -4 -4 -4 -4 -4 -4 -4 -4 -4 -4 -3 -3 -3 -3 -3 -3 -3 -3 -3 -3 -2 -2
2 2 2 2 2 1 1 0 -0 -0 -0 -1 -1 -1 -1 -1 -1 -1 -1 -1 -2 -2 -2 -2 -2 -1 -1 -1 -2 -2 -2 -3 -3 -3 -3 -2 -2 -1 -1 -1 -2 -2 -2 -2 -2 -2 -2 -2 -3 -3 -3 -3 -4 -4 -4 -4 -4 -4 -4 -5 -5 -5 -5 -5 -5 -5 -5 -4 -4 -4 -4 -4 -4 -4 -4 -4 -3 -3 -3 -3 -3 -3 -3 -3 -3 -2
2 2 1 1 1 1 0 -0 -0 -1 -1 -1 -1 -1 -1 -1 -1 -1 -2 -2 -2 -2 -2 -2 -2 -2 -3 -3 -3 -3 -3 -3 -4 -4 -3 -3 -2 -1 -1 -1 -2 -2 -2 -2 -2 -2 -3 -3 -3 -3 -3 -3 -4 -4 -4 -4 -5 -5 -5 -5 -5 -5 -5 -5 -5 -5 -5 -5 -4 -4 -4 -4 -4 -4 -4 -4 -4 -4 -4 -4 -3 -3 -3 -3 -3 -3
3 2 1 1 1 1 0 -0 -1 -1 -1 -1 -1 -2 -2 -2 -2 -2 -3 -3 -3 -3 -3 -3 -3 -3 -3 -3 -3 -3 -3 -3 -4 -4 -4 -3 -2 -1 -1 -1 -2 -2 -2 -2 -3 -3 -3 -3 -3 -3 -3 -3 -4 -4 -4 -4 -5 -5 -5 -5 -5 -5 -5 -5 -5 -5 -5 -5 -5 -5 -4 -4 -4 -4 -4 -4 -4 -4 -4 -4 -4 -3 -3 -3 -3 -3
3 2 1 1 1 0 0 -0 -0 -0 -1 -1 -2 -2 -2 -2 -2 -2 -3 -3 -3 -3 -4 -4 -4 -4 -3 -3 -2 -2 -3 -3 -4 -4 -4 -3 -2 -1 -1 -2 -2 -2 -2 -3 -3 -3 -4 -3 -3 -3 -3 -3 -3 -4 -4 -5 -5 -5 -5 -5 -5 -5 -5 -6 -5 -5 -5 -5 -5 -5 -5 -5 -4 -4 -4 -4 -4 -4 -4 -4 -4 -3 -3 -3 -3 -4
2 1 1 0 0 0 -0 -0 -0 -0 -1 -1 -2 -2 -2 -2 -2 -3 -3 -3 -3 -4 -4 -4 -3 -2 -1 -1 -0 -1 -2 -3 -3 -4 -4 -3 -2 -2 -2 -2 -2 -3 -3 -3 -3 -4 -4 -4 -3 -3 -3 -3 -3 -4 -4 -5 -5 -5 -5 -5 -5 -6 -6 -6 -6 -6 -5 -5 -5 -5 -5 -5 -5 -5 -4 -4 -4 -4 -4 -4 -4 -4 -3 -4 -4 -4
1 0 -0 -1 -1 -1 -1 -1 -1 -1 -2 -2 -2 -2 -2 -2 -3 -3 -3 -3 -4 -4 -4 -3 -2 -1 -1 -0 -0 -0 -2 -3 -4 -4 -4 -4 -3 -3 -3 -3 -3 -3 -3 -4 -4 -4 -4 -3 -3 -3 -3 -3 -3 -4 -4 -5 -5 -5 -5 -5 -6 -6 -6 -6 -6 -6 -6 -5 -5 -5 -5 -5 -5 -5 -5 -5 -4 -4 -4 -4 -4 -4 -4 -4 -4 -4
-1 -1 -2 -2 -2 -2 -2 -2 -2 -2 -3 -3 -3 -2 -2 -2 -3 -3 -3 -4 -4 -4 -4 -3 -2 -1 -1 -1 -1 -1 -1 -2 -4 -4 -5 -5 -5 -4 -3 -3 -3 -3 -4 -4 -4 -4 -3 -3 -3 -3 -3 -3 -3 -4 -4 -4 -5 -5 -5 -5 -6 -6 -6 -6 -6 -6 -6 -6 -5 -5 -5 -5 -5 -5 -5 -5 -4 -4 -4 -4 -4 -4 -4 -4 -4 -4
-2 -1 -1 -1 -2 -2 -2 -2 -2 -3 -3 -3 -3 -2 -2 -2 -3 -3 -3 -4 -4 -4 -4 -3 -2 -2 -2 -1 -1 -1 -2 -2 -4 -5 -5 -6 -5 -4 -3 -3 -3 -4 -4 -4 -4 -3 -3 -3 -2 -2 -3 -3 -4 -4 -4 -4 -4 -5 -5 -5 -6 -6 -6 -6 -6 -6 -6 -6 -6 -6 -5 -5 -5 -5 -5 -5 -5 -4 -4 -4 -4 -4 -4 -4 -5 -4
-1 -1 -1 -1 -1 -2 -2 -2 -2 -2 -3 -3 -2 -2 -2 -2 -3 -3 -4 -4 -5 -5 -4 -3 -3 -3 -2 -2 -2 -2 -2 -3 -4 -5 -6 -6 -5 -4 -3 -3 -4 -4 -4 -4 -4 -3 -2 -2 -2 -2 -3 -3 -4 -4 -4 -4 -5 -5 -5 -5 -6 -6 -6 -6 -6 -6 -6 -6 -6 -6 -6 -5 -5 -5 -5 -5 -5 -5 -4 -4 -4 -4 -4 -5 -5 -4
-1 -1 -1 -1 -1 -2 -2 -2 -2 -2 -2 -2 -2 -2 -2 -2 -2 -3 -3 -4 -5 -5 -5 -4 -3 -3 -3 -3 -2 -2 -2 -3 -5 -5 -6 -6 -5 -4 -4 -4 -4 -4 -4 -4 -4 -3 -2 -2 -2 -3 -3 -4 -4 -4 -4 -4 -5 -5 -5 -5 -5 -6 -6 -6 -6 -6 -6 -6 -6 -6 -6 -6 -6 -5 -5 -5 -5 -5 -5 -5 -5 -5 -5 -5 -5 -4
-1 -1 -1 -1 -2 -2 -2 -2 -2 -2 -2 -2 -2 -2 -2 -2 -2 -3 -3 -4 -5 -5 -5 -5 -4 -4 -4 -3 -3 -2 -1 -3 -5 -6 -6 -6 -5 -5 -4 -4 -4 -4 -5 -5 -4 -3 -3 -2 -3 -3 -4 -4 -4 -4 -5 -5 -5 -5 -5 -5 -5 -6 -6 -6 -6 -6 -6 -6 -6 -6 -6 -6 -6 -6 -5 -5 -5 -5 -5 -5 -5 -5 -5 -5 -5 -5
-2 -2 -2 -2 -2 -2 -2 -2 -2 -1 -1 -1 -2 -2 -2 -2 -3 -3 -3 -4 -5 -5 -6 -6 -5 -5 -5 -4 -4 -3 -2 -3 -4 -6 -6 -6 -6 -5 -5 -5 -5 -5 -5 -5 -5 -5 -4 -4 -4 -4 -4 -5 -5 -5 -5 -5 -5 -5 -5 -5 -5 -6 -6 -6 -6 -6 -6 -6 -6 -6 -6 -6 -6 -6 -5 -5 -5 -5 -5 -5 -5 -5 -5 -5 -5 -5
-2 -2 -2 -2 -2 -2 -2 -2 -1 -1 -1 -2 -2 -2 -2 -3 -3 -4 -4 -4 -5 -5 -6 -6 -6 -6 -5 -5 -4 -4 -4 -4 -5 -6 -7 -7 -6 -6 -6 -6 -6 -6 -6 -6 -6 -6 -5 -5 -5 -5 -5 -5 -5 -5 -5 -5 -5 -5 -5 -5 -6 -6 -6 -6 -6 -6 -6 -6 -6 -6 -6 -6 -6 -6 -5 -5 -5 -5 -5 -5 -5 -5 -5 -5 -5 -5
-3 -3 -3 -2 -2 -2 -2 -2 -2 -2 -2 -2 -2 -3 -3 -3 -4 -4 -4 -4 -4 -5 -5 -6 -7 -7 -6 -6 -5 -5 -4 -4 -5 -7 -7 -7 -7 -7 -7 -7 -7 -7 -6 -6 -6 -6 -6 -6 -6 -6 -5 -5 -5 -5 -5 -5 -5 -5 -5 -6 -6 -6 -6 -6 -6 -6 -6 -6 -6 -6 -6 -6 -6 -6 -6 -6 -6 -6 -5 -5 -5 -5 -5 -5 -5 -5
-3 -3 -3 -3 -2 -2 -2 -2 -2 -2 -2 -2 -3 -3 -3 -3 -4 -4 -4 -4 -4 -5 -5 -6 -6 -7 -7 -7 -6 -6 -5 -5 -6 -7 -8 -8 -8 -8 -8 -8 -7 -7 -7 -7 -7 -7 -6 -6 -6 -6 -6 -6 -6 -5 -5 -5 -5 -5 -6 -6 -6 -6 -6 -6 -6 -6 -6 -6 -6 -6 -6 -6 -6 -6 -6 -6 -6 -6 -6 -6 -6 -5 -5 -5 -5 -5
-3 -3 -3 -3 -2 -2 -2 -2 -2 -2 -3 -3 -3 -3 -3 -3 -3 -3 -4 -4 -4 -5 -5 -6 -6 -7 -7 -8 -8 -7 -7 -7 -7 -7 -8 -9 -9 -9 -9 -8 -8 -8 -8 -8 -7 -7 -7 -7 -7 -7 -6 -6 -5 -5 -5 -5 -6 -6 -6 -6 -6 -6 -6 -6 -6 -6 -6 -6 -6 -6 -6 -6 -6 -6 -6 -6 -6 -6 -6 -6 -6 -6 -6 -6 -6 -5
-3 -3 -3 -2 -2 -2 -2 -2 -2 -3 -3 -3 -3 -3 -3 -3 -3 -3 -4 -4 -5 -5 -6 -6 -6 -7 -7 -8 -8 -8 -8 -8 -8 -8 -8 -9 -9 -9 -9 -9 -8 -8 -8 -8 -8 -8 -7 -7 -7 -7 -7 -6 -6 -5 -6 -6 -6 -6 -6 -6 -6 -6 -6 -6 -6 -6 -6 -6 -6 -6 -6 -6 -6 -6 -6 -6 -6 -6 -6 -6 -6 -6 -6 -6 -6 -6
-3 -3 -3 -2 -2 -2 -2 -3 -3 -3 -3 -3 -3 -3 -3 -3 -3 -4 -4 -5 -5 -5 -6 -6 -6 -7 -7 -8 -8 -8 -8 -8 -8 -8 -9 -9 -9 -9 -9 -9 -9 -9 -8 -8 -8 -8 -8 -8 -7 -7 -7 -6 -6 -6 -6 -6 -6 -6 -6 -6 -6 -6 -6 -6 -6 -6 -6 -6 -6 -6 -6 -6 -6 -6 -6 -6 -6 -6 -6 -6 -6 -6 -6 -6 -6 -6
-3 -3 -3 -2 -2 -2 -2 -3 -3 -3 -3 -3 -3 -3 -3 -4 -4 -4 -5 -5 -5 -5 -6 -6 -6 -7 -7 -7 -7 -7 -7 -8 -8 -8 -9 -9 -9 -9 -9 -9 -9 -9 -8 -8 -8 -8 -8 -8 -8 -7 -7 -7 -7 -7 -7 -6 -6 -6 -6 -6 -6 -6 -6 -6 -6 -6 -6 -6 -6 -6 -6 -6 -6 -6 -6 -6 -6 -6 -6 -6 -6 -6 -6 -6 -6 -5
-2 -2 -2 -2 -2 -2 -2 -3 -3 -2 -2 -2 -3 -3 -4 -4 -5 -5 -5 -6 -6 -6 -7 -7 -7 -7 -7 -7 -7 -7 -7 -7 -8 -8 -8 -8 -8 -8 -9 -9 -9 -9 -9 -8 -8 -8 -8 -8 -8 -8 -7 -7 -7 -7 -7 -6 -6 -6 -6 -6 -6 -6 -6 -6 -6 -6 -6 -5 -5 -6 -6 -6 -6 -6 -6 -6 -6 -6 -6 -6 -6 -6 -6 -6 -6 -6
-2 -2 -2 -2 -2 -2 -2 -2 -2 -2 -2 -3 -3 -4 -5 -5 -6 -6 -6 -7 -7 -7 -7 -7 -7 -7 -7 -7 -7 -7 -7 -7 -7 -7 -7 -8 -8 -8 -8 -8 -8 -9 -9 -8 -8 -8 -8 -8 -8 -8 -7 -7 -7 -7 -7 -6 -6 -6 -6 -6 -6 -6 -6 -6 -6 -6 -5 -5 -5 -5 -6 -6 -6 -6 -6 -6 -6 -6 -6 -6 -6 -6 -6 -6 -6 -6
-2 -2 -2 -2 -2 -2 -2 -2 -2 -2 -3 -4 -4 -5 -6 -6 -6 -6 -7 -7 -7 -7 -7 -7 -7 -7 -7 -6 -6 -6 -6 -7 -7 -7 -7 -7 -7 -8 -8 -8 -8 -8 -9 -9 -8 -8 -8 -8 -8 -7 -7 -7 -7 -7 -6 -6 -6 -6 -6 -6 -6 -6 -6 -5 -5 -5 -5 -5 -5 -6 -6 -6 -6 -6 -6 -6 -6 -6 -6 -6 -6 -6 -6 -6 -6 -6
-2 -2 -2 -2 -2 -2 -2 -2 -2 -3 -4 -4 -5 -6 -6 -6 -6 -7 -7 -7 -7 -7 -7 -7 -7 -7 -6 -6 -5 -5 -6 -6 -6 -7 -7 -7 -7 -7 -8 -8 -8 -8 -8 -8 -8 -8 -8 -8 -7 -7 -7 -7 -7 -7 -7 -6 -6 -6 -6 -6 -6 -6 -5 -5 -5 -5 -5 -5 -5 -5 -5 -6 -6 -6 -6 -6 -6 -6 -6 -6 -6 -6 -6 -6 -6 -6
-2 -2 -2 -2 -2 -2 -2 -3 -3 -4 -4 -5 -6 -6 -6 -6 -6 -7 -7 -7 -7 -7 -7 -7 -7 -7 -6 -5 -5 -5 -5 -5 -6 -6 -6 -7 -7 -7 -7 -7 -8 -8 -8 -8 -8 -8 -8 -7 -7 -7 -7 -7 -7 -7 -7 -6 -6 -6 -6 -6 -6 -6 -6 -5 -5 -6 -5 -5 -5 -5 -5 -6 -6 -6 -6 -6 -6 -6 -6 -6 -6 -6 -6 -6 -6 -6
-2 -2 -2 -2 -2 -3 -3 -4 -4 -4 -5 -5 -6 -6 -6 -6 -7 -7 -7 -7 -7 -7 -7 -7 -7 -6 -5 -4 -5 -5 -5 -5 -5 -5 -6 -6 -6 -6 -7 -7 -7 -7 -7 -7 -7 -7 -7 -7 -7 -6 -6 -6 -7 -6 -6 -6 -6 -6 -6 -5 -5 -5 -6 -6 -6 -6 -5 -5 -5 -5 -5 -5 -6 -6 -6 -6 -6 -6 -6 -6 -6 -6 -6 -6 -6 -6
-2 -2 -2 -2 -3 -3 -3 -4 -4 -5 -5 -6 -6 -6 -6 -6 -7 -7 -7 -7 -7 -7 -7 -7 -6 -5 -5 -5 -5 -5 -5 -5 -5 -5 -5 -5 -5 -6 -6 -6 -6 -6 -6 -6 -6 -7 -7 -6 -6 -6 -6 -6 -6 -6 -6 -6 -6 -5 -5 -5 -5 -5 -5 -5 -5 -5 -5 -5 -5 -5 -5 -5 -5 -5 -5 -5 -5 -5 -5 -5 -5 -5 -5 -5 -5 -5
-3 -3 -3 -3 -3 -3 -4 -4 -5 -5 -6 -6 -6 -6 -6 -6 -7 -7 -7 -7 -7 -7 -7 -6 -6 -5 -5 -5 -5 -5 -5 -5 -5 -5 -5 -5 -5 -5 -5 -5 -6 -6 -6 -6 -6 -6 -6 -6 -6 -6 -6 -6 -6 -5 -5 -5 -5 -5 -5 -5 -5 -5 -5 -5 -5 -5 -5 -5 -5 -5 -5 -5 -5 -5 -5 -5 -5 -5 -5 -5 -5 -5 -5 -5 -5 -5
-3 -3 -3 -3 -4 -4 -5 -5 -6 -6 -6 -6 -6 -6 -6 -6 -7 -7 -7 -7 -7 -7 -6 -6 -5 -5 -5 -5 -5 -5 -5 -5 -5 -5 -5 -5 -5 -5 -5 -5 -5 -5 -5 -5 -5 -5 -5 -5 -5 -6 -6 -6 -6 -5 -5 -5 -5 -5 -5 -5 -5 -5 -5 -5 -5 -5 -5 -5 -5 -5 -5 -5 -5 -5 -5 -5 -5 -5 -5 -5 -5 -5 -5 -5 -5 -5
-2 -3 -3 -4 -4 -5 -5 -5 -6 -6 -5 -5 -5 -6 -6 -6 -7 -7 -7 -7 -7 -7 -6 -6 -5 -5 -5 -5 -5 -5 -5 -5 -5 -5 -5 -5 -5 -5 -5 -5 -5 -5 -5 -5 -5 -5 -4 -4 -4 -5 -5 -5 -5 -5 -5 -5 -5 -5 -5 -5 -5 -5 -5 -5 -5 -5 -5 -5 -5 -5 -5 -5 -5 -5 -5 -5 -5 -5 -5 -5 -5 -5 -5 -5 -5 -5
-3 -3 -3 -4 -5 -5 -5 -5 -5 -5 -5 -6 -6 -6 -6 -6 -7 -7 -7 -7 -7 -6 -6 -6 -5 -5 -5 -5 -5 -5 -5 -5 -5 -5 -5 -5 -5 -5 -5 -5 -5 -5 -5 -5 -4 -4 -4 -3 -3 -3 -4 -4 -5 -5 -5 -5 -5 -5 -5 -5 -5 -4 -4 -4 -4 -4 -4 -5 -5 -5 -5 -5 -5 -5 -5 -5 -5 -5 -4 -4 -4 -4 -5 -5 -5 -5
-3 -3 -4 -4 -5 -5 -5 -5 -6 -6 -6 -6 -6 -6 -6 -6 -6 -6 -6 -6 -6 -6 -6 -6 -5 -5 -5 -5 -5 -5 -5 -5 -5 -5 -5 -5 -5 -5 -5 -5 -5 -5 -5 -4 -4 -4 -3 -3 -2 -2 -2 -3 -4 -4 -4 -4 -4 -4 -4 -4 -4 -4 -4 -4 -4 -4 -4 -5 -5 -5 -5 -5 -5 -5 -5 -5 -5 -4 -4 -4 -4 -4 -4 -5 -5 -5
Height
756 756 756 757 757 757 758 758 759 760 760 759 759 758 759 759 759 760 760 760 760 760 759 759 759 758 757 756 755 754 754 753 753 752 752 752 751 751 750 750 749 748 747 746 745 745 744 743 743 742 741 740 740 739 738 737 736 735 734 733 733 732 731 730 729 728 728 727 726 725 725 724 723 723 722 721 720 720 719 718 718 717 716 715 714 713
755 755 755 756 756 757 757 757 758 759 759 759 758 758 758 758 759 759 759 759 759 759 758 758 757 757 756 755 754 753 752 752 751 751 750 750 750 749 749 748 747 746 746 745 744 743 743 742 741 740 740 739 738 737 736 735 735 734 733 732 731 730 730 729 728 727 726 725 725 724 724 723 722 721 721 720 720 719 718 717 716 716 715 714 713 712
754 755 755 755 756 756 756 756 756 757 757 757 757 757 757 758 758 758 758 758 758 757 757 757 756 755 755 754 752 751 751 750 750 750 749 749 749 748 747 747 746 745 744 743 743 742 741 740 740 739 738 737 737 736 735 734 733 732 731 731 730 729 728 727 726 725 725 724 724 723 723 722 721 720 720 719 718 718 717 716 715 715 714 713 712 710
754 754 754 755 755 755 756 755 755 755 756 756 756 756 756 757 758 757 757 757 757 756 756 755 755 754 753 752 751 750 750 750 749 749 748 748 747 747 746 745 745 744 743 742 741 740 740 739 738 738 737 736 735 735 734 733 732 731 730 730 729 728 727 726 725 724 724 723 723 722 721 721 720 719 719 718 717 716 716 715 714 713 713 712 710 709
753 753 753 754 754 755 755 754 754 754 755 755 755 756 756 756 756 756 756 756 755 755 755 754 754 753 752 751 750 750 749 749 748 748 747 747 746 746 745 744 743 742 741 740 740 739 738 738 737 736 735 735 734 733 732 731 731 730 729 728 727 726 725 725 724 723 723 722 721 721 720 720 719 718 718 717 716 715 715 714 713 712 711 710 709 708
752 752 752 753 753 753 753 753 754 754 755 755 755 755 755 755 755 755 755 755 755 754 754 753 753 752 751 750 750 749 748 748 747 747 746 746 745 745 744 743 742 741 740 739 738 738 737 736 735 735 734 733 733 732 731 730 730 729 727 726 725 725 724 724 723 722 722 721 720 720 719 719 718 717 717 716 715 715 714 713 712 711 710 709 708 707
751 751 751 752 752 752 752 753 753 754 755 755 755 755 755 755 754 754 754 754 753 753 752 752 751 751 750 750 749 748 747 747 746 746 745 745 744 744 743 742 740 740 739 738 737 736 736 735 735 734 733 732 731 730 730 729 728 727 726 725 724 724 723 723 722 721 721 720 720 719 718 718 717 716 715 715 714 713 713 712 711 710 709 708 707 706
750 750 750 751 751 751 752 752 752 753 754 755 755 755 755 754 754 753 753 752 752 752 751 751 750 750 750 749 749 748 747 746 746 745 745 744 743 742 741 740 740 739 738 737 736 735 735 734 733 732 732 731 730 729 728 727 726 725 725 724 723 723 722 722 721 720 720 719 719 718 717 716 716 715 715 714 713 712 711 710 710 709 708 707 706 705
749 750 750 750 751 752 752 752 752 752 753 754 754 755 754 754 753 753 752 752 751 751 750 750 750 749 749 749 748 748 747 746 745 745 744 743 742 741 740 739 738 737 736 736 735 734 734 733 732 731 730 730 729 728 727 726 725 724 724 723 722 722 721 721 720 720 719 718 718 717 716 715 715 714 714 713 712 711 710 709 708 707 706 705 705 704
748 749 750 750 750 751 752 753 752 752 752 753 753 753 753 753 753 752 752 751 751 750 750 750 749 749 748 748 747 747 746 745 745 744 743 742 741 740 739 738 737 736 735 735 734 733 733 732 731 730 729 728 728 727 726 725 724 723 723 722 722 721 721 720 720 719 718 717 717 716 715 715 714 713 712 712 711 710 709 708 707 706 705 705 704 703
748 748 749 749 750 750 751 752 751 751 751 752 752 752 752 752 752 752 751 751 750 750 750 749 749 748 748 747 747 746 745 745 744 742 741 740 739 738 737 736 735 735 734 733 733 732 731 730 730 729 728 727 726 725 725 724 723 722 722 721 721 720 720 720 719 718 717 716 716 715 714 714 713 712 711 710 710 709 708 707 706 705 704 703 702 701
747 748 748 749 750 750 750 751 751 751 751 752 752 752 751 751 751 751 751 750 750 750 749 749 748 747 747 746 746 745 745 744 743 742 741 740 739 738 737 736 735 734 733 732 731 731 730 730 729 728 727 726 725 725 724 723 722 722 721 721 720 720 719 719 718 717 716 715 715 714 713 713 712 711 710 709 709 708 707 706 705 704 703 702 701 700
747 747 748 749 749 750 750 750 750 751 751 751 751 751 751 750 750 750 750 750 750 749 749 748 747 747 746 746 745 745 744 743 742 741 740 739 739 738 737 736 735 734 733 732 731 730 730 729 728 727 726 725 725 724 723 722 722 721 721 720 720 719 719 718 717 716 715 715 714 713 712 711 711 710 709 708 707 706 706 705 704 703 702 701 700 700
746 747 748 748 749 749 749 750 750 750 750 750 750 750 750 750 750 750 750 750 750 749 749 748 747 746 745 745 745 744 743 742 741 740 740 739 738 737 736 735 734 733 732 731 731 730 729 728 728 727 726 725 724 723 723 722 721 721 720 720 719 718 718 717 716 715 714 714 713 712 711 710 710 709 708 707 706 705 705 704 703 702 701 700 699 699
746 746 747 747 747 748 748 749 749 749 749 749 750 750 750 750 750 750 750 750 750 749 748 747 746 745 745 744 744 743 743 742 741 740 739 738 737 736 735 734 733 732 731 731 730 729 729 728 727 726 725 725 724 723 722 721 720 720 719 719 718 717 717 716 715 714 713 712 711 711 710 709 708 708 707 706 705 705 704 703 702 701 700 699 698 698
745 745 745 745 746 746 747 747 748 748 749 749 749 749 749 750 750 750 750 750 750 749 748 747 746 745 745 744 743 743 742 742 741 740 738 737 736 735 735 733 732 731 731 730 730 729 728 727 726 726 725 724 723 722 721 720 720 719 718 718 717 716 715 715 714 713 712 711 710 710 709 708 707 706 706 705 704 703 703 702 701 700 699 698 697 697
744 744 744 745 745 745 746 746 747 747 748 748 748 749 749 749 750 750 750 750 750 749 748 748 747 746 745 744 743 743 742 741 740 739 737 736 735 734 734 733 732 731 730 730 729 728 727 727 726 725 724 723 722 721 720 719 719 718 718 717 716 715 715 714 713 712 711 710 709 708 708 707 706 705 705 704 703 702 701 701 700 699 698 697 697 696
743 743 744 744 745 745 745 746 746 747 747 748 748 748 749 749 749 749 750 750 750 749 749 748 748 747 746 745 744 743 742 741 740 739 737 735 734 734 733 732 731 730 730 729 728 728 727 726 725 724 723 722 721 720 719 719 718 717 717 716 715 714 713 712 711 710 710 709 708 707 706 706 705 704 704 703 702 701 700 700 699 698 697 696 696 695
742 743 743 744 744 745 745 745 746 747 747 747 748 748 748 749 749 749 750 750 750 749 749 748 748 747 746 745 744 743 742 741 740 738 737 735 734 733 732 731 731 730 729 728 728 727 726 725 724 723 722 721 720 719 719 718 717 716 716 715 714 713 712 711 710 709 708 708 707 706 705 705 704 703 703 702 701 700 700 699 698 697 696 695 695 694
741 742 743 743 744 744 745 745 746 746 747 747 748 748 748 749 749 749 749 749 749 749 749 748 747 746 745 744 743 742 741 740 740 738 737 735 733 732 732 731 730 729 728 728 727 726 725 724 723 722 721 720 719 719 718 717 716 715 715 714 713 712 711 710 709 708 707 707 706 705 705 704 703 702 702 701 700 699 699 698 697 696 695 695 694 693
741 742 742 743 743 744 745 745 746 746 747 747 747 748 748 749 749 749 749 749 749 748 748 748 747 746 745 744 743 741 741 740 739 738 737 735 733 732 731 731 730 729 728 727 726 726 725 723 722 721 720 719 718 718 717 716 715 715 714 713 712 711 710 709 708 707 706 705 705 704 704 703 702 701 701 700 699 699 698 697 696 695 695 694 693 692
740 741 742 742 743 744 745 745 746 746 747 747 747 748 749 749 749 749 748 748 748 748 748 747 746 745 744 742 741 740 740 740 739 739 737 735 733 732 731 730 730 728 727 726 725 725 724 723 721 720 719 718 718 717 716 715 714 714 713 711 710 710 709 708 707 706 705 705 704 703 703 702 701 700 700 699 698 698 697 696 695 695 694 693 693 692
740 741 742 742 743 744 744 745 746 746 747 747 748 748 749 749 748 748 748 748 748 747 746 745 744 743 742 740 740 739 739 739 739 738 738 735 733 731 731 730 729 728 727 725 725 724 723 722 720 719 718 718 717 716 715 714 713 712 711 710 710 709 708 707 706 705 705 704 703 703 702 701 700 700 699 698 698 697 696 695 695 694 694 693 692 691
740 741 742 743 743 744 745 745 746 746 747 747 748 748 748 748 747 747 747 747 746 746 745 744 742 741 740 740 739 739 738 738 738 738 737 735 733 731 730 730 729 727 726 725 724 723 721 720 719 718 718 717 716 715 714 713 712 711 710 710 709 708 707 706 705 705 704 703 703 702 701 700 700 699 698 698 697 696 695 695 694 694 693 692 691 690
741 742 743 744 744 745 745 745 746 746 746 747 747 747 747 747 746 746 746 745 745 745 744 743 742 741 740 740 739 739 738 737 737 737 737 735 733 731 730 729 728 727 725 724 723 722 721 720 719 718 717 716 715 714 713 712 712 711 710 709 708 707 706 705 705 704 703 703 702 701 701 700 699 699 698 697 696 695 695 694 694 693 692 692 691 690
742 743 744 744 745 745 746 746 746 746 746 747 747 747 747 746 746 745 745 745 745 744 744 743 742 741 740 739 739 738 738 736 736 736 736 735 733 731 730 729 728 726 725 723 722 721 720 719 718 717 717 716 715 714 713 712 711 710 709 708 707 706 705 705 704 703 703 702 701 701 700 699 699 698 697 696 696 695 694 694 693 692 692 691 691 690
743 744 745 745 746 746 747 746 746 746 747 747 747 746 746 746 745 745 745 745 745 744 744 743 742 740 740 739 738 738 738 737 735 735 735 735 734 731 729 728 728 726 725 723 722 721 720 718 717 717 716 715 715 713 712 711 710 710 709 708 707 706 705 704 704 703 702 702 701 700 700 699 698 697 697 696 695 695 694 693 693 692 691 691 690 690
744 744 745 745 746 747 747 747 747 747 747 747 746 746 745 745 745 745 745 745 744 744 744 743 742 741 740 739 738 737 737 736 735 734 735 735 733 731 729 728 727 726 725 723 721 720 719 717 716 716 716 715 714 713 712 711 710 709 708 707 706 706 705 704 703 703 702 701 700 700 699 698 698 697 696 695 695 694 694 693 692 692 691 690 690 690
744 745 745 746 746 747 747 747 747 747 747 747 746 745 745 745 745 745 745 744 744 744 743 743 742 741 740 739 738 737 736 735 735 734 734 734 733 731 729 728 727 726 725 722 720 719 718 717 716 716 715 715 714 713 711 710 710 709 708 707 706 705 705 704 703 702 702 701 700 700 699 698 697 697 696 695 695 694 693 693 692 691 691 690 690 690
745 745 746 746 747 747 747 747 747 747 747 746 746 745 745 745 744 744 744 743 743 743 743 742 742 741 740 739 737 736 735 735 734 733 734 734 732 730 729 728 728 727 726 723 720 718 716 716 716 715 715 714 713 712 711 710 709 708 708 707 706 705 704 704 703 702 701 700 700 699 698 698 697 696 696 695 695 694 693 693 692 691 691 690 690 690
745 746 746 746 746 747 747 747 747 747 746 746 745 745 744 744 743 743 743 742 742 742 742 742 741 741 740 740 738 736 734 735 734 734 734 733 732 731 730 729 728 727 727 726 724 720 717 715 715 715 715 714 713 712 711 710 709 708 708 707 706 705 704 703 702 702 701 700 700 699 698 697 697 696 696 695 695 694 693 693 692 691 691 691 690 690
745 746 746 746 746 746 746 746 746 746 745 745 744 744 743 743 742 742 742 742 741 741 741 741 740 740 740 740 739 737 735 735 735 734 734 733 732 731 730 729 728 727 727 727 726 725 721 717 715 715 715 714 713 712 711 710 710 709 708 707 706 705 704 703 702 702 701 700 699 699 698 697 697 696 695 695 695 694 693 693 692 692 691 691 690 690
745 745 745 745 745 745 745 745 745 745 744 744 743 743 742 742 742 741 741 740 740 740 740 740 740 739 739 739 738 737 736 736 735 734 733 733 732 731 730 729 728 727 727 726 726 726 724 721 718 716 715 714 713 712 711 710 710 709 708 707 706 705 704 703 702 702 701 700 699 699 698 697 697 696 695 695 695 694 693 693 692 692 691 691 690 690
745 745 745 745 745 745 745 744 744 744 743 743 743 742 742 741 741 740 740 740 739 739 739 739 739 739 738 738 737 736 736 735 735 733 733 732 732 731 730 729 728 728 727 726 725 725 724 722 720 718 715 714 713 712 711 710 710 709 708 707 706 705 704 703 703 702 701 700 699 699 698 697 696 696 695 695 694 694 693 693 692 692 691 691 691 690
745 745 745 745 745 744 744 744 743 743 743 742 742 742 741 741 740 740 740 739 738 738 738 737 737 737 737 737 737 736 735 735 734 733 732 732 731 731 730 729 729 728 727 726 726 725 723 722 720 719 717 715 713 713 712 711 710 709 708 708 707 705 705 704 703 702 701 700 700 699 698 697 697 696 695 695 694 694 693 693 692 692 692 691 691 690
744 744 744 744 744 744 743 743 743 742 742 742 741 741 740 740 740 739 739 738 738 737 737 736 736 736 736 736 736 735 734 734 733 732 732 731 731 730 730 729 729 728 728 727 726 725 724 722 721 720 718 716 714 713 712 711 710 709 708 707 707 706 705 704 703 702 701 700 700 699 698 698 697 696 695 695 695 694 693 693 692 692 692 691 691 691
744 744 744 744 743 743 743 742 742 742 742 741 741 740 740 740 739 739 738 738 737 737 736 736 735 735 735 734 734 734 733 732 731 731 731 730 730 730 730 729 729 728 728 727 726 725 724 723 721 720 719 717 715 714 712 711 710 709 708 707 707 706 705 704 703 703 702 701 700 699 699 698 697 696 696 695 695 694 693 693 693 692 692 691 691 691
744 744 743 743 743 742 742 742 741 741 741 740 740 740 740 739 739 738 738 737 737 736 736 735 735 734 734 733 733 732 731 731 730 730 730 730 730 730 729 729 728 728 728 727 726 725 725 723 722 720 719 718 716 715 714 712 710 709 708 708 707 706 705 704 704 703 702 701 700 700 699 698 698 697 696 695 695 694 694 693 693 692 692 691 691 691
743 743 743 742 742 742 741 741 741 741 740 740 740 739 739 738 738 738 737 737 736 736 735 735 734 734 733 732 732 731 731 730 730 730 730 730 729 729 729 729 728 728 727 727 726 725 725 724 723 721 720 718 716 715 714 713 711 710 709 707 706 706 705 705 704 703 702 701 700 700 699 698 698 697 696 696 695 694 694 693 693 693 692 692 691 691
742 742 742 742 741 741 741 741 740 740 740 740 739 739 738 738 738 737 737 736 736 735 735 735 734 733 733 732 732 731 731 730 730 730 729 729 729 729 728 728 728 727 727 726 725 725 724 723 722 721 720 719 717 715 714 713 711 710 709 708 707 706 705 705 704 703 702 701 701 700 699 699 698 697 697 696 695 695 694 694 693 693 692 692 692 691
741 741 741 741 741 740 740 740 740 740 740 739 739 739 738 738 738 737 737 736 736 736 735 735 734 734 733 732 731 731 730 730 730 729 729 729 728 728 728 727 727 727 726 725 725 724 723 722 721 720 720 719 717 715 714 713 711 710 710 709 708 706 705 705 704 703 702 701 701 700 700 699 698 698 697 696 696 695 695 694 694 693 693 693 692 692
741 741 741 740 740 740 740 740 740 740 739 739 739 739 738 738 738 737 737 737 736 736 735 735 734 733 733 732 731 731 730 730 729 729 728 728 727 727 727 726 726 726 725 725 724 723 722 721 720 720 719 718 717 715 714 712 711 710 710 709 708 706 705 705 704 703 702 702 701 700 700 699 699 698 697 697 696 695 695 695 694 694 693 693 693 692
740 740 740 740 740 740 740 740 740 739 739 739 739 739 739 738 738 737 737 736 736 735 735 734 734 733 733 732 732 731 730 730 729 728 727 727 726 726 726 725 725 725 724 723 723 722 721 720 720 719 718 717 716 715 714 712 711 710 710 709 708 707 705 704 704 703 702 702 701 700 700 700 699 698 698 697 696 695 695 695 695 694 694 694 693 693
740 740 740 740 740 740 740 740 740 740 740 739 739 739 739 738 737 737 736 736 736 735 735 734 733 733 733 732 732 731 730 730 729 728 727 727 726 725 725 725 724 724 723 723 722 720 720 719 718 718 717 716 716 715 713 712 711 710 709 709 708 707 706 705 704 703 702 702 701 700 700 700 699 698 698 697 696 696 695 695 695 694 694 694 694 694
740 740 740 740 740 740 740 740 740 740 740 740 739 739 738 738 737 736 736 736 735 735 734 734 733 733 733 732 731 731 730 730 729 729 728 727 727 726 725 725 725 724 723 722 721 720 719 718 717 717 716 715 715 714 713 711 710 710 709 708 707 707 706 705 704 703 702 702 701 700 700 700 699 698 698 697 696 696 696 695 695 695 695 694 694 694
740 740 740 740 740 740 740 740 740 740 740 739 739 739 738 737 737 736 736 735 735 735 734 734 734 733 733 732 732 731 730 730 729 729 728 728 727 726 726 725 725 724 723 722 720 719 718 717 716 716 715 715 714 713 712 711 710 709 708 707 707 706 705 705 704 703 702 702 701 700 700 700 699 699 698 697 696 696 696 695 695 695 695 695 695 694
740 740 740 740 740 740 740 740 740 740 740 739 739 739 738 737 736 736 736 735 735 735 735 734 734 734 733 733 732 731 731 730 729 729 728 727 727 726 725 725 724 723 722 721 720 718 717 716 715 715 714 714 713 712 711 710 710 709 708 707 706 706 705 704 704 703 702 702 701 700 700 700 699 699 698 697 697 696 696 696 695 695 695 695 695 695
740 740 740 740 740 740 740 740 740 740 740 739 739 738 738 737 736 736 735 735 735 735 735 735 734 734 733 733 732 732 731 730 730 729 728 727 726 725 725 724 723 722 721 720 719 717 716 715 714 714 713 713 712 711 710 710 709 708 707 707 706 705 705 704 703 702 702 701 701 700 700 700 699 699 698 697 697 697 696 696 696 695 695 695 695 695
740 740 740 740 740 740 740 740 740 740 739 739 739 738 737 737 736 736 736 735 735 735 735 735 735 734 733 733 732 732 731 731 730 729 728 727 726 725 724 723 722 721 720 719 718 716 715 714 713 712 711 711 711 710 710 709 708 708 707 706 705 705 704 703 703 702 702 701 700 700 700 700 699 699 698 698 697 697 696 696 696 696 695 695 695 695
740 740 740 740 740 740 740 740 740 739 739 739 738 738 737 737 736 736 736 735 735 735 735 735 735 734 734 733 733 732 731 731 730 729 728 727 726 725 724 723 722 721 720 718 717 716 714 713 712 711 710 710 710 710 709 708 708 707 706 705 705 704 704 703 702 702 701 701 700 700 700 699 699 699 698 698 697 697 697 696 696 696 696 696 695 695
740 740 740 740 740 740 740 740 739 739 739 738 738 737 737 737 736 736 736 736 736 735 735 735 735 734 734 733 733 732 731 731 730 729 728 727 726 725 724 723 722 721 720 718 717 715 714 712 711 710 710 709 709 709 709 708 707 706 706 705 705 704 703 703 702 701 701 700 700 700 699 699 699 699 698 698 698 697 697 697 696 696 696 696 696 696
Wind_Speed
10 11 13 13 12 12 12 13 13 12 12 14 16 18 19 20 19 19 18 18 17 17 18 18 18 18 20 22 23 24 22 21 19 17 15 13 13 14 14 15 15 16 16 16 17 17 17 17 17 16 16 16 16 16 16 17 17 17 17 17 17 17 17 17 18 18 18 18 18 18 18 18 18 18 18 19 19 19 20 20 20 21 21 22 22 22
12 13 13 13 11 11 11 13 14 13 12 13 15 16 17 16 16 16 16 16 16 16 17 18 19 19 20 21 22 23 22 20 18 16 14 13 13 14 14 15 15 15 16 16 16 16 16 16 16 16 16 16 16 16 16 16 16 16 16 17 17 17 17 17 18 18 18 18 18 18 17 18 18 18 18 18 19 19 20 20 20 21 21 22 22 22
10 11 11 11 11 10 9 11 13 14 14 14 15 16 16 15 13 13 13 14 15 16 17 18 19 20 20 21 22 22 21 19 17 15 14 13 14 14 15 15 15 15 15 15 16 16 15 15 15 15 15 15 15 16 16 16 16 16 16 16 17 17 17 17 17 17 17 17 17 17 17 17 18 18 18 18 19 19 20 20 20 21 21 21 22 22
8 8 9 10 10 10 9 10 12 15 16 17 17 17 16 14 12 12 13 14 15 15 16 17 18 19 19 20 20 20 20 18 16 14 13 13 13 14 14 15 15 15 14 15 15 15 14 14 14 15 15 15 15 15 15 16 16 16 16 17 17 17 17 17 17 17 17 17 17 17 17 17 17 18 18 18 19 19 20 20 20 20 21 21 22 22
7 8 9 9 9 9 9 11 13 15 16 16 16 15 14 13 13 13 15 16 16 16 17 17 18 18 18 18 19 19 18 16 14 13 13 13 13 14 14 15 14 14 14 14 14 14 14 14 14 14 14 15 15 15 15 15 16 16 17 17 17 17 17 17 17 16 16 16 16 17 17 17 17 18 18 18 19 19 19 20 20 20 21 21 21 22
7 9 10 9 8 8 10 11 12 12 12 13 13 12 12 13 14 14 14 14 15 16 17 17 17 17 16 16 17 17 16 14 13 13 13 14 14 15 15 15 14 14 14 13 13 13 13 13 13 14 14 14 15 15 15 16 16 16 17 17 17 17 17 16 16 16 16 16 16 17 17 17 17 18 18 18 19 19 19 20 20 20 20 21 21 21
8 10 11 10 10 11 11 10 10 10 9 8 8 9 10 11 13 13 13 14 14 15 16 16 16 15 14 13 13 14 14 14 14 14 14 15 15 15 15 15 15 14 13 13 12 12 12 12 12 13 13 14 14 15 15 16 16 17 17 17 17 16 15 15 15 15 16 16 16 16 17 17 17 18 18 18 18 19 19 20 20 20 20 20 20 21
6 8 9 10 10 10 9 9 10 10 9 7 5 5 6 7 8 9 11 12 13 14 14 14 13 12 11 10 10 11 12 13 14 14 15 15 15 15 15 15 15 14 13 11 11 11 11 11 12 12 13 13 14 15 15 16 17 17 17 16 15 15 14 14 15 15 15 16 16 16 17 17 17 17 18 18 18 19 19 20 20 20 20 20 20 20
5 6 7 8 8 6 5 6 8 10 11 9 7 5 4 4 5 6 7 8 9 10 11 11 11 11 10 9 8 9 11 13 14 15 15 15 15 15 15 16 15 14 12 11 10 9 10 10 11 11 12 13 13 14 15 16 16 16 15 14 14 13 14 14 15 15 15 16 16 16 16 17 17 17 18 18 18 19 19 20 20 20 20 20 20 20
5 5 6 7 8 6 4 3 5 9 11 10 9 8 6 5 5 5 6 5 6 7 9 10 10 10 10 9 8 9 11 13 15 16 16 16 16 16 17 17 16 15 13 12 10 10 10 11 11 12 12 13 13 14 14 14 14 13 13 12 12 13 14 14 15 15 16 16 16 16 16 17 17 17 18 18 19 19 19 19 19 19 19 19 19 20
5 6 6 7 8 8 6 4 5 8 9 8 8 8 8 6 5 5 6 6 5 6 7 8 9 9 10 9 8 9 11 13 14 15 15 15 15 16 16 16 16 16 15 14 13 12 12 12 13 13 14 13 14 14 14 13 12 12 12 12 13 14 14 15 15 15 16 16 16 16 16 17 17 18 18 19 19 19 19 19 19 19 19 19 19 19
6 6 6 6 6 6 6 6 6 7 6 5 5 5 4 4 4 4 5 6 6 6 7 8 8 9 9 9 9 10 12 13 14 13 13 13 13 13 13 14 14 14 14 14 14 13 13 13 14 14 14 14 13 13 13 12 12 12 12 13 14 14 14 15 15 15 16 16 16 16 17 17 17 18 18 19 19 19 19 19 18 18 18 18 18 18
6 6 6 5 5 5 5 5 4 4 4 4 3 2 1 1 3 4 5 5 6 7 7 8 9 9 8 8 9 10 13 14 13 13 12 12 11 11 11 12 12 12 12 12 12 11 12 12 13 13 13 13 13 12 12 12 12 12 13 13 14 14 14 15 15 15 16 16 16 16 17 17 18 18 18 18 18 18 18 18 18 18 18 18 18 18
6 5 5 4 4 4 5 5 4 4 4 3 3 2 2 3 4 5 4 5 5 6 7 8 9 8 7 7 8 10 13 14 14 13 12 11 11 11 11 11 12 12 12 11 10 10 11 11 12 12 12 12 11 11 12 12 12 13 13 14 14 14 15 15 15 15 16 16 16 16 17 17 17 18 18 18 18 18 17 17 17 17 17 17 17 17
5 5 4 3 4 4 4 5 4 3 3 3 3 3 4 4 4 3 3 4 5 6 7 8 8 7 5 6 7 10 12 13 13 13 13 12 12 11 10 11 11 12 12 11 10 10 11 11 11 11 11 11 11 12 12 13 13 13 14 14 14 14 15 15 15 15 15 16 16 16 16 17 17 17 17 17 17 17 17 17 17 17 17 16 16 16
6 4 4 4 3 4 4 4 4 3 3 3 3 3 2 2 2 2 3 4 5 6 6 7 7 6 4 5 7 9 11 11 12 13 14 13 12 11 10 10 11 11 11 11 10 10 10 10 10 11 11 12 13 13 13 13 13 13 14 14 14 14 15 15 15 15 15 16 16 16 16 16 17 17 17 17 16 16 16 16 16 16 16 16 16 16
5 4 4 3 3 3 4 4 4 3 3 3 3 2 1 1 1 2 3 4 5 5 5 5 5 4 4 5 6 7 9 11 12 13 14 14 13 11 10 10 10 11 11 11 11 10 10 10 11 11 12 13 14 14 13 13 13 14 14 14 14 14 15 15 15 15 16 16 16 16 16 16 16 16 16 16 16 15 15 15 15 15 15 15 15 15
5 5 4 3 3 3 4 4 4 4 4 3 2 1 1 1 1 2 2 3 4 4 4 5 4 4 4 6 6 7 9 12 13 14 13 13 12 11 9 9 10 11 11 11 11 10 10 10 11 13 14 15 14 13 12 12 13 13 14 14 14 14 15 15 15 16 16 16 15 15 15 15 15 15 15 15 15 15 15 15 15 15 14 14 14 14
6 5 4 4 4 4 4 4 4 4 4 3 2 1 0 0 1 1 2 2 3 3 4 5 5 5 6 8 9 10 11 13 13 13 13 13 13 11 9 9 9 10 11 11 11 10 10 11 13 14 14 14 14 13 12 12 12 13 13 14 14 14 15 15 15 15 15 15 15 14 14 14 14 14 14 14 14 14 14 14 14 14 13 13 13 13
6 6 5 5 5 4 4 4 4 5 4 3 2 2 1 0 1 1 2 2 3 3 4 5 6 7 8 10 11 12 12 12 12 11 12 12 12 11 8 8 9 10 11 11 11 10 11 12 13 14 13 13 13 12 12 12 12 13 13 14 14 15 15 15 15 15 14 14 14 14 13 13 13 13 13 13 13 13 13 13 13 13 12 12 12 13
6 6 5 6 5 5 4 4 4 4 4 3 2 2 1 0 1 2 2 2 3 4 5 5 7 8 10 11 12 13 13 11 10 9 10 11 11 10 8 7 9 10 11 11 11 11 12 14 14 14 13 12 12 12 12 12 12 13 13 14 14 15 15 14 14 14 13 13 13 13 13 13 12 12 12 12 12 13 13 12 12 12 11 12 12 12
7 7 7 6 6 6 5 6 5 4 3 2 2 2 1 1 1 1 2 3 4 5 6 7 9 11 13 14 14 13 11 9 8 8 9 9 10 10 8 8 9 10 11 11 11 12 13 15 15 14 12 11 11 11 12 12 12 13 14 14 15 15 14 14 13 13 13 12 12 12 12 12 12 12 12 12 12 12 12 12 11 11 11 12 12 11
8 8 8 7 7 7 7 6 5 4 3 2 2 1 1 2 2 2 3 4 6 7 9 11 13 14 14 14 13 11 9 8 8 7 7 7 9 10 9 10 11 11 12 12 12 13 15 16 15 14 12 11 10 11 12 13 13 14 14 15 15 14 14 13 12 12 12 12 12 11 11 11 11 11 11 11 12 12 12 11 11 11 12 13 12 11
8 9 9 8 7 7 6 6 5 4 3 2 1 2 2 2 3 4 5 7 8 10 12 13 13 12 11 10 9 8 7 8 8 7 5 6 9 11 11 11 11 12 13 13 14 15 15 16 15 14 11 10 9 11 13 14 14 14 14 14 14 14 13 13 12 12 11 12 12 11 11 11 11 11 11 11 11 11 11 11 10 11 13 13 12 12
9 9 9 8 7 6 5 4 3 3 2 1 0 1 2 4 5 7 8 8 9 10 10 10 9 8 7 7 6 5 5 9 9 7 5 7 9 12 12 11 12 12 13 14 14 15 15 15 14 12 10 9 9 11 14 15 15 14 14 14 14 13 13 12 12 11 11 11 11 11 11 11 11 11 11 11 11 11 11 11 11 11 12 12 12 12
11 10 10 9 7 6 5 4 4 3 3 2 2 3 5 6 7 8 7 7 7 7 7 7 7 7 7 7 6 5 4 7 7 6 5 6 9 12 12 11 11 12 13 14 14 14 14 14 13 11 9 9 10 12 14 14 14 14 14 13 13 13 13 12 12 11 11 11 11 11 10 11 11 11 11 11 10 10 10 11 11 11 11 12 11 11
12 11 11 9 8 7 7 6 5 4 3 2 3 5 6 7 7 5 3 3 4 5 5 6 6 6 7 6 6 6 5 5 6 7 7 7 9 11 12 11 11 12 14 14 14 14 14 13 11 9 8 8 11 13 13 14 14 14 13 13 13 13 12 12 12 11 11 10 10 10 10 11 11 11 11 10 10 10 10 11 11 11 11 11 10 10
12 11 10 9 7 7 6 6 5 3 1 2 4 6 7 8 6 4 3 5 6 6 5 5 5 5 5 6 7 8 6 4 6 8 9 8 8 10 11 11 11 12 13 14 15 14 13 11 9 7 6 8 11 14 14 14 14 13 12 12 12 12 12 12 12 12 11 11 11 10 11 11 11 11 11 10 10 10 10 11 12 11 11 10 9 8
9 8 7 6 4 3 2 2 2 1 1 3 5 7 7 7 6 5 6 8 7 6 4 5 5 5 6 8 9 9 6 4 6 9 9 8 8 10 11 11 11 12 13 13 14 12 10 7 6 5 6 9 12 14 15 14 13 12 12 12 12 12 12 12 12 12 11 11 11 11 11 11 11 11 11 11 10 10 11 12 12 11 10 10 9 8
6 5 4 3 2 1 0 1 2 3 4 5 6 7 7 7 7 8 8 9 8 5 4 5 6 6 7 8 8 6 3 3 6 8 9 7 8 10 11 11 11 11 12 12 10 7 7 6 5 5 8 11 13 14 14 14 13 12 12 12 12 11 11 12 12 12 11 11 12 12 12 12 12 11 11 11 11 11 11 12 12 11 11 10 9 8
4 4 3 3 2 1 1 1 2 3 4 5 6 7 7 8 8 9 9 9 8 6 5 5 6 6 6 5 4 3 1 2 5 7 8 7 8 10 11 10 10 10 10 9 5 3 5 6 6 7 10 13 14 14 14 13 12 12 12 12 12 12 12 12 12 12 11 11 12 12 12 12 11 11 11 11 11 11 11 12 12 11 11 10 9 8
4 3 3 2 1 1 1 2 3 4 5 5 6 7 8 9 9 9 9 9 8 7 6 6 6 6 6 5 4 4 4 5 6 6 7 7 9 10 10 9 9 9 9 7 6 5 5 5 8 12 13 14 14 14 13 12 11 12 12 12 12 12 12 12 12 11 11 11 12 12 12 12 11 11 11 12 12 12 12 12 11 11 11 10 9 8
4 3 2 1 1 2 2 3 4 5 6 6 7 8 9 9 9 9 9 9 9 8 7 7 6 6 6 7 7 7 7 7 7 7 7 7 8 9 9 9 9 9 9 8 7 7 7 8 11 14 14 14 14 13 12 11 11 11 12 12 12 12 12 12 12 11 11 11 11 11 11 11 11 11 11 12 12 13 13 12 11 11 10 9 9 9
3 2 1 1 2 2 3 4 5 6 7 7 8 8 8 8 9 9 9 9 9 9 9 8 8 7 7 7 8 8 8 6 6 7 8 8 7 8 9 9 9 9 9 9 9 9 9 11 12 13 14 14 13 12 11 11 11 11 12 12 12 12 12 12 12 12 11 11 11 11 11 11 11 11 11 12 13 13 13 13 11 10 9 9 8 8
2 2 1 2 2 3 3 4 5 6 7 7 8 8 8 8 8 8 8 9 9 10 10 10 10 9 9 8 8 8 8 7 7 9 10 9 7 7 8 7 7 8 8 8 9 9 9 11 12 13 13 13 12 11 10 10 11 12 12 12 12 12 12 12 12 12 12 11 11 11 11 11 11 11 11 12 13 13 13 12 11 10 9 8 8 7
2 1 1 1 2 3 4 5 6 6 7 7 7 8 7 7 7 8 8 9 9 10 10 11 11 11 11 11 10 10 11 12 12 13 12 10 8 7 6 6 7 8 8 9 9 9 9 11 12 13 13 12 11 10 10 11 12 13 12 12 12 12 11 11 11 11 11 11 11 11 11 11 11 11 12 12 13 13 12 11 10 9 8 8 7 7
2 1 1 2 3 3 4 5 6 6 7 7 7 8 7 7 8 8 9 9 9 9 10 10 11 11 12 12 12 13 14 14 14 13 12 10 8 7 7 7 7 8 8 8 9 9 10 10 11 12 11 10 9 10 12 13 14 13 13 13 12 12 11 11 11 11 11 11 11 11 11 11 11 11 12 12 12 12 11 10 9 9 8 7 7 6
2 1 2 2 3 4 5 5 6 6 7 7 7 7 8 8 8 9 9 10 10 10 10 10 10 10 10 10 11 12 12 12 12 11 10 9 8 8 8 8 8 8 8 8 9 10 10 9 8 8 8 9 10 11 13 14 14 13 13 13 12 12 11 11 11 11 11 11 11 11 11 11 11 11 12 12 12 11 11 10 9 9 8 8 7 6
2 1 2 3 4 4 5 5 5 6 6 6 7 7 8 9 10 10 10 10 10 10 10 10 10 9 8 8 7 8 8 9 9 8 8 8 8 8 9 9 8 8 8 9 9 9 9 9 8 8 8 9 11 12 13 13 13 13 14 14 13 12 11 11 12 11 11 11 11 11 11 11 11 11 11 11 11 11 10 10 9 9 9 8 8 7
2 1 2 3 3 4 4 5 5 5 6 6 7 8 9 10 11 11 11 11 11 10 10 10 10 9 8 7 7 6 6 6 6 6 6 6 6 7 8 8 8 9 9 9 9 10 10 10 10 10 10 10 11 12 12 12 13 13 13 13 12 11 12 12 12 11 11 10 10 11 11 11 11 11 11 11 11 10 9 9 9 9 8 8 8 8
2 1 2 2 3 4 4 4 5 5 6 7 8 9 10 11 11 11 11 10 9 8 9 9 9 8 7 7 7 7 7 7 6 6 6 5 6 6 7 8 9 9 9 10 10 10 10 10 11 11 11 11 12 12 12 12 12 13 12 11 11 12 13 12 11 10 10 10 11 11 11 11 11 11 11 11 10 10 9 8 8 8 8 7 7 7
2 1 2 2 2 3 3 4 5 6 7 8 8 9 9 11 11 11 10 8 7 6 7 7 7 7 6 6 6 6 7 8 8 8 8 7 7 7 8 8 9 10 10 10 10 11 11 11 10 10 10 10 11 11 12 12 12 12 11 11 11 12 12 11 10 10 10 11 11 11 11 10 10 10 11 10 10 9 9 8 7 7 7 6 6 6
2 1 0 1 2 3 4 5 5 6 7 7 8 8 9 11 11 11 9 7 6 6 7 7 7 6 5 5 5 5 6 8 10 10 9 9 8 8 9 9 10 10 10 10 10 11 11 11 10 10 10 10 10 11 11 12 12 11 11 11 11 11 9 10 11 11 11 11 11 10 10 10 10 10 10 10 10 9 8 7 7 6 6 6 6 6
2 1 1 2 2 3 4 5 5 6 7 7 8 8 9 10 11 10 8 7 7 6 6 7 6 5 5 5 5 6 6 6 7 8 9 8 8 9 9 9 10 10 11 10 11 11 11 11 10 10 9 9 9 10 11 11 11 11 11 11 10 9 9 10 11 12 12 11 11 10 9 9 10 10 10 10 9 8 7 7 6 6 5 5 5 5
2 2 2 2 3 4 4 5 6 7 8 8 8 8 8 9 9 8 7 7 7 6 6 6 6 5 5 5 6 7 7 7 7 6 7 6 6 7 7 8 9 9 10 11 11 12 11 11 10 10 9 9 9 10 11 11 11 11 11 11 10 10 10 11 11 11 11 11 11 10 10 10 10 10 9 9 9 8 7 6 6 6 5 5 5 5
3 3 3 3 4 5 6 7 8 8 8 8 7 7 8 9 9 8 7 7 6 6 6 5 5 5 5 6 7 7 8 8 8 8 7 7 6 6 6 7 8 8 10 11 12 12 12 12 12 11 10 9 10 10 10 10 10 11 11 10 10 10 10 10 10 10 10 10 10 10 10 10 9 9 8 8 8 7 6 6 6 5 5 5 5 5
4 4 4 4 5 6 7 8 9 8 7 6 5 6 7 8 8 8 7 6 6 6 5 5 5 5 5 6 7 7 8 8 8 8 8 8 8 8 8 8 8 9 10 11 12 13 13 14 13 12 10 9 9 10 10 9 10 10 10 10 10 10 10 10 10 10 10 10 10 10 10 9 9 8 8 8 8 7 6 5 5 5 5 4 4 4
5 5 5 6 7 8 8 8 8 7 5 5 5 5 6 8 8 8 7 6 6 5 5 5 6 6 6 6 7 7 8 8 8 9 9 9 9 9 9 9 9 10 10 11 11 12 13 14 14 13 12 10 9 9 9 9 10 10 10 10 10 10 10 10 10 10 9 9 9 9 9 9 8 7 7 7 7 7 6 5 5 4 4 4 4 4
5 6 7 8 9 9 8 7 6 6 5 5 5 5 6 7 8 7 7 6 5 5 5 5 6 6 6 6 7 7 8 8 8 8 9 9 10 10 10 11 11 11 11 11 11 11 11 11 12 12 11 10 9 9 9 9 10 10 10 10 10 10 10 10 10 9 9 8 9 9 8 8 7 7 6 6 6 6 6 5 5 4 4 4 4 4
6 7 7 8 8 8 7 6 6 5 5 5 6 6 6 6 6 6 6 5 5 5 5 5 5 6 6 7 7 7 8 8 8 8 9 10 10 11 12 12 12 12 12 12 11 11 10 10 8 7 7 7 7 8 8 9 9 10 10 10 10 10 9 9 9 9 9 8 9 8 8 7 6 6 6 5 6 6 6 5 5 4 4 4 4 4
7 7 8 8 8 8 7 6 6 5 5 6 6 6 6 6 6 5 5 5 5 5 5 5 5 5 6 6 7 7 8 8 8 8 9 10 10 11 12 12 12 12 12 12 11 11 10 9 8 6 4 3 5 6 7 8 9 9 10 10 10 9 9 9 9 9 9 9 8 8 7 6 6 5 5 5 5 5 5 5 5 4 4 4 4 4
Wind_Direction
230 236 240 241 239 235 233 229 222 218 225 234 242 247 253 256 259 264 270 275 281 286 290 294 297 300 303 306 308 310 311 310 308 304 298 294 292 291 291 292 293 294 295 295 295 294 294 294 293 293 295 296 296 297 298 298 298 299 300 300 301 302 302 302 302 302 303 303 302 302 303 303 303 304 304 305 305 305 306 306 306 305 305 305 304 304
239 242 244 245 240 235 235 235 226 218 222 233 241 247 253 258 263 268 272 277 282 287 292 296 299 302 303 305 307 308 309 309 305 300 294 290 288 288 290 292 293 294 295 295 295 294 293 293 292 292 294 295 296 297 298 298 299 299 300 301 301 302 301 302 302 302 303 302 302 302 302 303 304 304 305 305 305 305 306 305 305 305 305 305 305 305
233 240 242 241 235 229 230 237 230 221 220 228 238 246 252 256 262 269 273 277 282 288 294 298 301 303 305 305 306 307 308 306 302 296 291 288 288 290 293 294 294 294 295 295 295 294 293 292 292 292 293 294 295 297 298 298 299 300 301 302 302 302 302 303 303 303 303 302 302 302 302 303 304 304 305 305 305 305 306 306 306 306 305 305 306 306
221 227 234 235 229 223 223 231 232 228 226 230 240 249 254 255 258 264 270 276 283 288 293 297 301 304 305 305 305 305 305 303 299 295 291 291 293 297 299 300 300 298 297 296 295 295 293 293 292 292 293 294 295 297 298 298 299 300 302 302 302 302 301 302 302 303 303 303 302 302 303 303 304 305 305 305 305 306 306 307 307 307 307 306 306 307
213 218 225 226 222 219 226 232 235 236 236 237 242 250 256 257 260 265 272 279 285 289 293 297 301 303 304 304 304 304 304 301 298 295 294 295 298 303 306 308 307 304 300 298 296 295 294 293 293 294 294 295 296 297 298 299 300 301 301 300 300 300 300 301 302 303 303 303 303 303 303 304 304 305 305 305 306 306 307 307 307 307 307 307 307 307
208 215 220 217 213 216 225 232 236 237 239 241 245 252 258 262 266 270 276 282 287 292 296 300 303 305 306 306 305 305 304 301 299 298 298 301 305 310 313 313 311 307 302 298 295 294 293 294 295 296 296 297 297 297 298 299 300 300 299 298 299 300 301 302 303 303 303 303 303 303 304 304 305 305 305 305 306 307 307 307 307 307 307 307 307 308
209 219 223 217 217 221 225 229 230 229 229 238 248 256 263 269 274 277 281 286 291 297 301 305 308 310 311 309 308 307 307 305 304 305 307 310 313 316 317 316 313 308 303 298 294 292 292 293 295 296 297 298 298 299 299 299 298 298 298 298 299 301 303 304 304 304 304 304 304 305 305 304 304 304 305 305 305 306 307 307 307 307 307 307 308 308
205 220 224 216 218 224 227 232 234 232 225 228 240 253 261 270 277 285 291 297 300 305 309 313 316 317 316 311 307 306 306 307 309 311 312 313 315 317 318 317 316 312 307 300 294 292 292 294 296 297 299 300 300 300 300 299 298 298 298 300 302 304 306 306 306 305 305 305 306 306 306 305 305 305 305 305 305 305 305 306 306 306 307 308 308 309
189 201 212 209 207 209 219 231 240 240 234 229 231 243 260 272 280 288 296 300 304 309 314 318 320 320 318 312 306 301 302 305 309 312 313 313 315 318 320 321 321 319 316 309 303 300 301 303 305 306 306 305 303 302 301 300 299 300 302 304 307 309 308 307 307 307 307 307 307 306 306 305 305 305 305 305 305 305 304 305 306 307 307 308 308 309
189 185 193 201 200 195 188 194 231 242 241 235 234 242 256 276 290 297 300 295 296 304 312 316 318 318 317 316 311 304 305 309 312 314 315 316 318 321 323 324 324 324 324 322 318 316 316 318 320 320 317 314 309 306 304 303 303 305 308 311 312 311 309 308 308 308 308 307 306 306 305 305 305 305 305 304 304 304 305 306 306 307 307 308 309 310
183 186 185 189 194 196 191 189 220 239 244 242 248 258 266 271 285 301 306 303 301 304 308 311 312 313 313 315 312 309 311 315 317 318 318 317 318 319 321 322 322 323 326 327 327 326 326 328 329 328 324 319 315 313 311 311 312 313 315 314 313 311 310 309 309 309 308 307 306 305 305 304 304 304 303 303 304 305 306 306 307 307 308 309 310 311
173 177 178 179 187 195 199 211 230 241 243 242 248 253 253 265 287 302 305 304 305 307 308 307 307 306 307 308 308 311 318 320 320 319 317 315 313 313 314 315 315 318 321 324 326 326 326 326 327 327 324 320 317 316 317 318 318 318 316 314 312 311 311 310 310 309 308 307 307 306 304 303 303 303 303 304 305 306 307 307 307 308 309 309 310 312
177 174 170 170 177 188 200 206 216 227 229 225 227 225 209 264 304 312 305 299 300 304 307 308 305 302 300 299 304 314 322 324 322 318 316 314 311 309 309 309 311 313 316 320 320 319 319 319 320 321 320 318 316 316 318 318 319 317 315 314 313 312 312 312 311 311 310 308 308 306 304 303 303 303 304 306 307 307 307 308 308 309 310 311 311 312
171 172 170 173 183 192 200 200 202 205 208 209 211 222 243 284 309 319 313 301 301 305 308 305 303 298 291 285 297 315 326 327 324 319 316 313 311 310 309 307 310 313 317 318 315 313 313 314 315 316 317 317 316 316 317 318 318 317 316 316 315 315 314 314 313 313 311 310 309 308 305 304 304 304 306 307 307 307 308 308 309 310 310 312 312 313
168 169 180 187 188 189 193 198 201 201 194 198 218 245 274 299 316 324 319 311 310 311 311 309 307 301 285 272 291 316 329 329 324 318 315 313 313 312 310 307 309 314 318 317 313 310 311 313 314 315 316 316 316 318 319 320 319 319 319 318 317 317 316 316 316 315 314 312 312 311 308 306 305 304 305 307 307 308 308 309 310 310 312 312 313 314
176 180 190 191 184 180 186 190 188 184 185 208 235 260 305 334 341 337 329 320 316 316 318 321 321 318 305 286 303 322 332 329 322 317 315 313 314 315 312 309 309 313 316 316 313 310 311 311 312 313 315 315 316 318 321 323 322 321 321 320 320 319 319 318 318 317 315 314 315 314 313 310 307 305 305 306 308 308 309 310 310 311 312 313 314 314
182 188 192 186 173 168 178 186 184 181 188 212 239 266 312 349 357 347 337 324 319 319 323 330 331 329 323 316 320 329 334 328 321 316 314 312 314 316 313 309 308 310 314 314 313 311 310 309 310 313 315 317 319 323 325 324 323 322 322 322 321 321 321 320 319 317 315 315 315 315 315 315 311 307 306 306 308 309 310 311 312 312 313 314 315 314
185 189 189 179 167 163 169 174 178 183 192 200 221 265 325 345 349 340 331 320 316 319 324 327 324 318 314 312 314 321 325 324 320 316 313 310 312 314 313 309 308 309 311 312 312 311 310 309 309 311 315 318 322 325 326 325 324 324 323 323 323 322 321 320 319 317 316 316 315 315 314 315 312 309 307 308 309 310 311 312 313 314 314 315 315 313
187 190 184 172 163 163 165 168 174 178 180 181 181 166 97 33 332 320 311 302 304 313 318 315 309 303 300 296 303 312 318 320 319 315 311 310 310 311 311 307 307 308 309 310 311 311 311 310 310 311 313 318 322 325 326 325 324 324 324 324 323 323 321 320 319 318 317 316 316 316 315 314 312 310 309 310 311 311 312 313 314 315 316 317 316 313
182 183 177 171 163 155 154 163 174 178 177 180 173 146 138 159 257 268 276 286 298 305 306 302 297 296 296 296 301 308 314 318 318 314 309 308 308 308 307 307 307 308 308 309 312 314 314 313 312 311 312 314 317 321 322 323 323 324 324 324 324 323 321 320 319 318 318 318 317 317 318 316 313 312 312 312 313 314 314 315 315 316 317 317 316 315
170 169 174 175 165 150 144 158 172 180 181 180 157 125 118 216 253 260 279 299 304 303 301 295 292 293 295 295 297 302 310 314 315 313 310 309 308 308 309 310 310 308 307 309 312 316 316 316 314 312 310 309 310 313 317 321 322 324 324 324 324 323 321 320 320 320 320 320 320 319 319 318 316 314 314 315 315 315 315 316 316 318 319 318 318 321
165 161 170 170 163 152 148 157 162 165 167 156 119 110 133 239 263 286 306 311 306 298 292 290 289 290 290 289 293 300 307 306 306 309 311 308 305 305 312 314 312 309 307 309 312 316 317 317 315 311 308 305 306 308 314 319 323 324 324 325 325 325 323 322 322 323 323 322 322 321 321 321 320 318 317 317 317 317 318 318 319 319 320 321 326 334
167 158 157 155 151 148 147 147 148 149 143 121 109 124 228 245 261 285 299 303 299 294 291 293 296 299 298 295 297 300 300 296 299 305 307 302 301 306 314 316 313 309 306 308 312 316 316 317 315 311 306 304 302 305 312 319 323 325 325 326 327 327 326 325 325 324 324 325 325 325 324 324 324 323 322 320 320 320 320 320 320 321 321 324 330 339
152 146 143 140 138 137 136 135 132 126 115 111 144 199 242 282 309 314 311 312 312 313 314 314 312 307 301 296 294 292 284 287 296 304 301 294 298 305 312 315 313 308 305 308 312 314 315 315 314 312 307 303 301 304 311 320 324 325 326 327 328 329 330 329 328 327 327 328 328 328 329 328 328 328 327 325 323 323 322 322 322 322 322 325 330 335
130 127 123 120 118 115 113 111 102 87 70 71 235 280 320 336 336 332 330 330 330 329 327 320 311 304 305 306 303 291 276 286 294 299 295 295 299 304 310 313 312 308 306 308 312 314 312 310 310 309 306 302 302 306 314 320 323 324 326 327 329 331 332 332 332 331 331 331 331 331 331 331 331 330 330 329 328 326 325 325 325 325 325 323 324 328
109 106 103 99 95 91 86 79 66 49 29 12 345 337 345 344 341 337 332 329 329 327 321 312 308 308 314 316 317 312 294 292 294 296 293 298 302 304 309 313 314 310 309 310 313 313 309 305 302 302 302 303 306 312 317 321 322 323 324 326 329 331 333 334 334 335 334 333 333 333 333 334 333 333 333 332 331 329 329 329 330 329 327 324 324 327
105 105 104 102 100 97 93 86 75 57 27 354 341 345 348 346 344 337 311 302 313 321 320 316 313 314 317 318 315 310 304 294 289 290 293 301 303 303 308 314 317 315 313 312 313 312 307 301 296 294 298 305 312 316 319 321 321 322 323 326 328 331 333 335 336 337 337 336 335 336 336 336 336 336 336 335 334 333 332 333 334 333 331 329 330 333
114 116 117 117 118 118 113 106 97 89 65 330 326 333 339 341 337 320 292 303 317 322 314 309 309 314 316 314 309 304 297 284 276 284 298 309 306 301 308 316 320 320 317 314 313 312 308 301 294 291 298 310 317 320 321 322 322 323 324 326 329 331 333 335 337 338 339 339 339 339 339 340 340 340 340 339 337 336 337 338 338 337 335 336 337 336
121 121 119 121 125 130 134 139 149 178 255 290 307 320 329 331 326 313 304 312 319 319 307 304 306 307 308 307 305 300 289 263 267 287 313 319 308 302 311 320 324 324 323 319 317 317 313 306 303 305 312 318 321 322 322 323 324 325 326 328 329 331 333 336 337 339 340 341 342 342 343 344 345 345 344 343 342 340 340 342 342 341 340 342 340 334
117 111 105 100 97 88 50 280 273 276 286 298 309 317 324 325 322 317 314 317 318 313 300 301 303 304 308 310 309 302 282 256 283 306 327 323 311 309 318 321 325 327 330 328 325 320 316 315 317 322 324 323 322 322 322 323 325 327 328 329 330 331 333 336 338 339 340 342 344 345 346 347 348 348 347 347 345 344 343 344 345 345 344 345 341 336
107 98 89 83 74 55 16 335 315 307 307 312 317 321 322 322 321 318 317 316 314 307 296 294 296 299 302 310 312 308 309 317 319 324 332 321 309 310 318 319 321 325 333 335 333 321 317 316 319 323 325 324 322 321 322 323 325 327 329 330 330 331 333 336 338 340 341 343 345 346 348 349 350 349 349 348 348 346 345 345 346 346 346 345 342 338
106 97 89 84 65 30 1 342 329 321 320 321 321 322 321 320 319 318 316 314 310 304 293 286 284 284 284 282 280 286 299 314 321 327 330 319 309 308 314 315 317 320 326 329 321 310 310 310 314 318 322 321 321 320 321 323 326 328 330 331 330 330 333 336 338 341 343 344 345 346 348 349 349 349 348 348 348 348 346 345 345 345 345 344 341 339
115 110 99 72 22 1 352 338 329 325 324 323 321 320 319 318 318 316 315 313 311 304 293 283 278 277 276 274 273 278 287 300 312 322 326 322 313 308 312 313 314 315 319 318 311 300 295 298 307 313 317 319 319 319 321 324 328 331 332 331 330 331 333 337 340 342 343 344 345 346 347 348 347 347 347 348 348 348 347 345 344 343 342 340 339 339
125 112 77 30 5 353 342 333 328 324 322 319 318 317 316 317 316 315 314 313 312 308 300 287 277 274 276 280 281 282 286 297 311 319 322 325 316 307 308 310 310 313 317 316 313 306 299 300 305 311 314 317 318 319 321 326 330 332 332 332 331 332 334 337 340 341 343 344 345 346 346 346 345 345 346 347 347 346 346 345 345 344 342 340 338 339
122 96 54 18 353 335 325 323 322 321 320 319 317 317 318 319 319 318 317 316 314 311 307 298 287 278 274 277 282 285 286 294 300 305 312 317 313 306 305 304 308 314 317 315 315 313 308 307 309 311 313 316 318 320 325 329 331 331 331 332 333 333 335 338 340 341 342 343 344 345 344 344 343 343 344 345 345 344 344 345 346 345 344 340 339 339
109 92 38 341 320 317 318 319 319 320 321 321 323 325 326 328 329 328 326 323 320 316 311 306 299 290 282 276 274 276 280 286 291 296 302 305 304 299 296 298 306 312 314 312 312 312 310 310 311 312 313 315 317 322 326 329 330 330 331 334 335 336 337 339 341 341 341 342 342 342 342 341 341 340 341 341 342 342 342 344 346 346 344 342 339 338
118 129 296 305 315 322 326 323 323 323 323 324 327 330 333 335 337 336 334 331 327 323 318 313 307 301 294 287 281 280 284 289 294 299 302 301 296 289 286 290 299 305 307 307 308 310 309 309 311 313 314 315 318 322 324 326 328 330 332 335 336 338 339 341 342 342 341 340 340 340 339 339 338 338 339 339 340 341 343 344 346 347 345 344 341 339
162 224 284 311 324 330 331 327 325 323 323 326 328 332 337 340 341 341 340 338 336 335 332 327 321 314 307 299 294 294 296 299 303 306 304 297 287 280 280 286 293 297 298 299 302 304 305 306 309 313 314 315 316 317 319 322 325 328 331 333 335 337 340 342 342 341 339 338 337 337 338 338 338 338 338 340 341 342 343 344 346 347 346 345 344 342
188 227 282 313 322 324 326 324 323 323 326 329 333 338 342 344 345 346 345 345 345 345 343 341 336 332 328 322 317 314 312 312 311 308 301 290 281 277 279 284 289 294 297 296 295 294 294 296 299 304 309 312 314 315 317 319 322 325 328 331 334 338 340 340 339 338 336 335 335 335 336 337 337 338 338 339 340 341 342 342 343 344 345 344 343 342
194 233 288 311 321 325 326 325 326 329 333 338 343 347 350 350 350 350 350 350 349 349 349 348 346 343 342 341 340 337 336 335 333 325 315 303 295 291 291 290 291 294 296 294 291 288 287 287 289 293 298 303 307 310 313 315 318 322 327 331 333 335 335 334 333 333 334 334 333 333 334 334 336 337 337 337 337 338 338 338 339 340 342 342 342 341
191 243 292 313 324 330 333 337 340 342 345 349 351 354 354 354 355 357 358 355 350 346 345 345 343 339 336 334 332 332 335 345 350 349 344 336 329 321 313 304 299 297 294 290 288 287 285 284 285 288 293 297 302 305 307 310 315 320 325 326 325 325 326 329 330 331 332 332 332 332 332 333 334 336 335 335 335 335 334 334 333 334 337 340 341 340
189 228 289 319 332 339 347 351 355 355 356 357 358 359 357 356 359 1 360 356 350 344 344 343 339 333 327 317 311 310 315 324 332 338 340 339 335 327 319 311 305 299 292 287 286 286 285 284 285 287 290 295 299 302 305 309 313 318 320 320 320 322 325 329 333 333 331 329 329 329 331 332 334 334 333 331 331 331 332 331 331 332 334 336 337 337
175 196 328 356 4 8 10 8 5 4 2 3 5 3 360 360 1 3 1 354 346 343 343 344 342 334 324 319 315 310 307 310 316 321 323 323 322 319 314 310 305 300 294 287 285 287 289 289 287 287 288 292 294 296 300 305 309 313 315 317 321 323 324 327 330 330 329 327 327 328 329 332 332 332 330 330 330 331 332 332 332 332 334 336 336 334
146 118 74 47 35 29 24 19 14 11 12 15 15 9 2 2 4 4 360 352 348 345 344 344 341 335 330 335 338 335 329 320 315 314 314 309 309 309 305 303 301 298 293 284 281 284 290 293 292 290 291 292 292 292 295 299 304 307 311 314 316 316 312 314 317 322 324 325 325 326 327 329 330 329 330 328 329 330 333 333 333 334 334 336 334 331
122 100 76 60 49 41 36 29 24 23 24 25 20 12 4 3 4 3 358 352 349 348 347 345 339 336 339 344 344 342 341 341 336 330 324 316 310 305 297 294 291 288 287 283 282 284 287 289 291 294 295 294 291 289 290 294 299 304 307 310 311 309 305 307 309 312 316 319 320 322 325 328 329 329 329 330 331 333 335 334 333 333 335 336 335 332
108 95 82 68 59 50 42 34 31 31 29 26 19 9 3 3 4 3 358 354 352 349 348 346 344 343 342 343 344 343 342 343 344 342 339 334 328 319 310 303 297 292 288 286 284 284 283 284 287 291 294 294 292 290 289 292 297 302 305 308 310 309 308 309 310 310 310 313 315 319 324 328 330 330 330 331 332 334 337 337 335 334 335 337 337 336
106 96 85 71 58 48 38 33 31 29 25 18 10 1 359 2 4 3 359 358 355 351 348 348 349 348 346 344 344 344 343 341 340 340 339 336 333 329 325 319 312 306 300 294 290 287 285 284 283 283 284 287 291 293 293 297 300 303 304 306 308 309 309 310 311 312 313 313 314 318 323 328 331 332 331 331 332 335 338 340 339 337 338 340 340 339
106 94 80 65 55 46 38 32 29 25 16 8 360 355 354 360 3 3 0 359 357 353 352 352 352 351 348 348 348 346 343 340 338 337 336 335 332 330 328 325 322 318 313 306 299 294 289 286 283 278 273 270 275 286 294 299 302 304 304 304 305 305 305 306 308 310 311 312 314 318 323 326 328 329 329 330 331 335 340 342 343 342 344 345 345 343
99 86 73 62 54 47 40 34 28 21 10 2 356 353 353 359 3 4 2 359 356 353 353 353 352 350 349 349 348 347 344 341 339 337 336 336 334 333 331 330 329 327 325 321 316 310 303 296 287 277 268 258 260 274 287 295 299 302 302 301 300 300 300 303 307 310 312 313 314 317 320 322 323 324 324 324 328 333 340 345 347 348 350 351 351 350
91 79 69 61 54 47 41 34 27 18 8 1 356 354 355 359 1 1 359 357 354 352 352 351 350 350 349 348 348 347 345 343 340 338 337 336 335 334 333 334 335 335 335 335 335 334 330 325 314 294 270 255 259 270 276 285 293 298 300 301 300 300 301 304 308 312 314 316 316 317 317 319 321 322 322 321 325 332 341 348 352 356 358 358 358 357
84 73 65 59 53 46 39 34 26 17 8 3 360 358 358 358 358 357 356 355 354 352 349 348 349 350 350 348 348 348 346 343 339 337 335 335 334 333 333 335 336 338 339 340 342 343 344 345 345 342 326 272 266 274 273 280 289 297 301 303 305 305 305 307 309 312 314 315 316 316 316 316 317 319 320 321 326 335 342 349 354 357 0 2 2 2